| time (UTC) | temp F | wind direction | speed MPH | gust MPH | rain 1hr in | rain 24hr in | rain mn in | humidity % | barometer mb |
| 20260505022824 | 58 | 106 | 0.0 | 1.0 | 0.00 | 0.00 | 0.00 | 48 | 997.8 |
| 20260505022321 | 58 | 106 | 0.0 | 1.0 | 0.00 | 0.00 | 0.00 | 48 | 998.0 |
| 20260505021818 | 58 | 106 | 0.0 | 1.0 | 0.00 | 0.00 | 0.00 | 48 | 997.7 |
| 20260505021315 | 58 | 106 | 0.0 | 1.0 | 0.00 | 0.00 | 0.00 | 48 | 997.9 |
| 20260505020810 | 58 | 106 | 0.0 | 1.0 | 0.00 | 0.00 | 0.00 | 48 | 997.8 |
| 20260505020306 | 58 | 106 | 0.0 | 1.0 | 0.00 | 0.00 | 0.00 | 48 | 997.8 |
| 20260505015803 | 58 | 106 | 0.0 | 1.0 | 0.00 | 0.00 | 0.00 | 48 | 998.0 |
| 20260505015300 | 58 | 106 | 0.0 | 1.0 | 0.00 | 0.00 | 0.00 | 48 | 997.8 |
| 20260505014758 | 58 | 106 | 0.0 | 1.0 | 0.00 | 0.00 | 0.00 | 48 | 997.9 |
| 20260505014255 | 58 | 106 | 0.0 | 1.0 | 0.00 | 0.00 | 0.00 | 48 | 997.8 |
| 20260505013751 | 58 | 283 | 1.0 | 4.0 | 0.00 | 0.00 | 0.00 | 48 | 997.9 |
| 20260505013248 | 58 | 118 | 0.0 | 2.0 | 0.00 | 0.00 | 0.00 | 46 | 997.7 |
| 20260505012746 | 59 | 227 | 2.0 | 3.0 | 0.00 | 0.00 | 0.00 | 45 | 997.8 |
| 20260505012244 | 59 | 49 | 0.0 | 2.0 | 0.00 | 0.00 | 0.00 | 44 | 997.7 |
| 20260505011739 | 60 | 128 | 0.0 | 2.0 | 0.00 | 0.00 | 0.00 | 43 | 997.7 |
| 20260505011237 | 60 | 233 | 0.0 | 1.0 | 0.00 | 0.00 | 0.00 | 43 | 997.7 |
| 20260505010732 | 60 | 92 | 2.0 | 2.0 | 0.00 | 0.00 | 0.00 | 40 | 997.6 |
| 20260505010228 | 61 | 43 | 1.0 | 1.0 | 0.00 | 0.00 | 0.00 | 40 | 997.3 |
| 20260505005725 | 61 | 58 | 2.0 | 2.0 | 0.00 | 0.00 | 0.00 | 39 | 997.6 |
| 20260505005222 | 62 | 38 | 4.0 | 5.0 | 0.00 | 0.00 | 0.00 | 39 | 997.3 |
| 20260505004719 | 62 | 38 | 4.0 | 5.0 | 0.00 | 0.00 | 0.00 | 39 | 997.4 |
| 20260505004216 | 62 | 38 | 4.0 | 5.0 | 0.00 | 0.00 | 0.00 | 39 | 997.4 |
| 20260505003713 | 62 | 38 | 4.0 | 5.0 | 0.00 | 0.00 | 0.00 | 39 | 997.6 |
| 20260505003211 | 62 | 38 | 4.0 | 5.0 | 0.00 | 0.00 | 0.00 | 39 | 997.4 |
| 20260505002707 | 61 | 71 | 3.0 | 4.0 | 0.00 | 0.00 | 0.00 | 41 | 997.7 |
| 20260505002205 | 61 | 71 | 3.0 | 6.0 | 0.00 | 0.00 | 0.00 | 41 | 997.6 |
| 20260505001701 | 60 | 66 | 5.0 | 5.0 | 0.00 | 0.00 | 0.00 | 42 | 997.9 |
| 20260505001159 | 60 | 224 | 0.0 | 0.0 | 0.00 | 0.00 | 0.00 | 42 | 997.8 |
| 20260505000656 | 60 | 224 | 0.0 | 0.0 | 0.00 | 0.00 | 0.00 | 42 | 997.8 |
| 20260505000154 | 60 | 129 | 0.0 | 1.0 | 0.00 | 0.00 | 0.00 | 41 | 998.0 |
| 20260504235650 | 60 | 129 | 0.0 | 1.0 | 0.00 | 0.00 | 0.00 | 41 | 997.9 |
| 20260504235146 | 60 | 55 | 2.0 | 3.0 | 0.00 | 0.00 | 0.00 | 48 | 998.0 |
| 20260504234644 | 60 | 55 | 2.0 | 3.0 | 0.00 | 0.00 | 0.00 | 48 | 998.1 |
| 20260504234141 | 60 | 55 | 2.0 | 3.0 | 0.00 | 0.00 | 0.00 | 48 | 998.1 |
| 20260504233637 | 60 | 55 | 2.0 | 3.0 | 0.00 | 0.00 | 0.00 | 48 | 998.3 |
| 20260504233133 | 60 | 55 | 2.0 | 3.0 | 0.00 | 0.00 | 0.00 | 48 | 998.3 |
| 20260504232631 | 60 | 55 | 2.0 | 3.0 | 0.00 | 0.00 | 0.00 | 48 | 998.0 |
| 20260504232127 | 60 | 55 | 2.0 | 3.0 | 0.00 | 0.00 | 0.00 | 48 | 998.3 |
| 20260504231624 | 60 | 55 | 2.0 | 3.0 | 0.00 | 0.00 | 0.00 | 48 | 998.0 |
| 20260504231120 | 59 | 252 | 2.0 | 5.0 | 0.00 | 0.00 | 0.00 | 49 | 998.1 |
| 20260504230616 | 60 | 122 | 1.0 | 5.0 | 0.00 | 0.00 | 0.00 | 45 | 998.1 |
| 20260504230116 | 60 | 122 | 1.0 | 5.0 | 0.00 | 0.00 | 0.00 | 45 | 998.3 |
| 20260504225613 | 60 | 122 | 1.0 | 5.0 | 0.00 | 0.00 | 0.00 | 45 | 998.4 |
| 20260504225109 | 60 | 122 | 1.0 | 5.0 | 0.00 | 0.00 | 0.00 | 45 | 998.4 |
| 20260504224606 | 60 | 122 | 1.0 | 5.0 | 0.00 | 0.00 | 0.00 | 45 | 998.6 |
| 20260504224103 | 60 | 250 | 2.0 | 5.0 | 0.00 | 0.00 | 0.00 | 41 | 998.9 |
| 20260504223600 | 60 | 250 | 2.0 | 5.0 | 0.00 | 0.00 | 0.00 | 41 | 998.9 |
| 20260504223055 | 59 | 230 | 2.0 | 5.0 | 0.00 | 0.00 | 0.00 | 42 | 998.9 |
| 20260504222553 | 60 | 230 | 3.0 | 7.0 | 0.00 | 0.00 | 0.00 | 40 | 998.9 |
| 20260504222050 | 61 | 232 | 2.0 | 3.0 | 0.00 | 0.00 | 0.00 | 38 | 998.6 |
| 20260504221547 | 61 | 232 | 2.0 | 3.0 | 0.00 | 0.00 | 0.00 | 38 | 998.5 |
| 20260504221044 | 61 | 232 | 2.0 | 3.0 | 0.00 | 0.00 | 0.00 | 38 | 998.5 |
| 20260504220540 | 63 | 181 | 0.0 | 2.0 | 0.00 | 0.00 | 0.00 | 35 | 998.5 |
| 20260504220037 | 63 | 181 | 0.0 | 2.0 | 0.00 | 0.00 | 0.00 | 35 | 998.4 |
| 20260504215534 | 63 | 181 | 0.0 | 2.0 | 0.00 | 0.00 | 0.00 | 35 | 998.3 |
| 20260504215032 | 63 | 181 | 0.0 | 2.0 | 0.00 | 0.00 | 0.00 | 35 | 998.3 |
| 20260504214527 | 63 | 181 | 0.0 | 2.0 | 0.00 | 0.00 | 0.00 | 35 | 998.4 |
| 20260504214024 | 65 | 79 | 4.0 | 4.0 | 0.00 | 0.00 | 0.00 | 35 | 998.4 |
| 20260504213521 | 65 | 121 | 1.0 | 3.0 | 0.00 | 0.00 | 0.00 | 33 | 998.0 |
| 20260504213018 | 65 | 40 | 3.0 | 5.0 | 0.00 | 0.00 | 0.00 | 32 | 997.9 |
| 20260504212513 | 66 | 26 | 2.0 | 2.0 | 0.00 | 0.00 | 0.00 | 33 | 997.9 |
| 20260504212011 | 64 | 96 | 7.0 | 8.0 | 0.00 | 0.00 | 0.00 | 32 | 997.8 |
| 20260504211508 | 65 | 102 | 8.0 | 9.0 | 0.00 | 0.00 | 0.00 | 32 | 997.8 |
| 20260504211005 | 67 | 101 | 10.0 | 16.0 | 0.00 | 0.00 | 0.00 | 30 | 997.6 |
| 20260504210502 | 66 | 83 | 7.0 | 12.0 | 0.00 | 0.00 | 0.00 | 32 | 997.6 |
| 20260504205958 | 66 | 93 | 10.0 | 15.0 | 0.00 | 0.00 | 0.00 | 31 | 997.7 |
| 20260504205456 | 66 | 102 | 13.0 | 13.0 | 0.00 | 0.00 | 0.00 | 32 | 997.6 |
| 20260504204954 | 66 | 71 | 8.0 | 10.0 | 0.00 | 0.00 | 0.00 | 32 | 997.8 |
| 20260504204452 | 68 | 102 | 17.0 | 22.0 | 0.00 | 0.00 | 0.00 | 31 | 997.7 |
| 20260504203951 | 68 | 102 | 17.0 | 22.0 | 0.00 | 0.00 | 0.00 | 31 | 997.7 |
| 20260504203448 | 69 | 65 | 3.0 | 4.0 | 0.00 | 0.00 | 0.00 | 32 | 997.8 |
| 20260504202944 | 70 | 265 | 1.0 | 2.0 | 0.00 | 0.00 | 0.00 | 29 | 997.8 |
| 20260504202441 | 71 | 238 | 2.0 | 2.0 | 0.00 | 0.00 | 0.00 | 25 | 997.7 |
| 20260504201938 | 72 | 236 | 2.0 | 4.0 | 0.00 | 0.00 | 0.00 | 25 | 997.8 |
| 20260504201435 | 68 | 252 | 2.0 | 2.0 | 0.00 | 0.00 | 0.00 | 26 | 997.8 |
| 20260504200932 | 68 | 252 | 2.0 | 2.0 | 0.00 | 0.00 | 0.00 | 26 | 997.9 |
| 20260504200429 | 71 | 219 | 4.0 | 4.0 | 0.00 | 0.00 | 0.00 | 25 | 998.0 |
| 20260504195926 | 70 | 239 | 2.0 | 2.0 | 0.00 | 0.00 | 0.00 | 25 | 997.8 |
| 20260504195422 | 69 | 329 | 2.0 | 2.0 | 0.00 | 0.00 | 0.00 | 32 | 998.0 |
| 20260504194918 | 68 | 245 | 1.0 | 3.0 | 0.00 | 0.00 | 0.00 | 28 | 998.3 |
| 20260504194414 | 69 | 264 | 0.0 | 1.0 | 0.00 | 0.00 | 0.00 | 28 | 998.0 |
| 20260504193910 | 69 | 126 | 3.0 | 3.0 | 0.00 | 0.00 | 0.00 | 27 | 998.0 |
| 20260504193408 | 70 | 222 | 0.0 | 5.0 | 0.00 | 0.00 | 0.00 | 27 | 998.1 |
| 20260504192907 | 70 | 247 | 5.0 | 5.0 | 0.00 | 0.00 | 0.00 | 26 | 998.1 |
| 20260504192403 | 70 | 253 | 4.0 | 6.0 | 0.00 | 0.00 | 0.00 | 28 | 998.0 |
| 20260504191902 | 72 | 267 | 1.0 | 3.0 | 0.00 | 0.00 | 0.00 | 27 | 998.1 |
| 20260504191400 | 71 | 278 | 1.0 | 2.0 | 0.00 | 0.00 | 0.00 | 25 | 998.3 |
| 20260504190855 | 71 | 253 | 2.0 | 4.0 | 0.00 | 0.00 | 0.00 | 27 | 998.1 |
| 20260504190351 | 71 | 67 | 4.0 | 4.0 | 0.00 | 0.00 | 0.00 | 24 | 998.4 |
| 20260504185848 | 69 | 200 | 0.0 | 2.0 | 0.00 | 0.00 | 0.00 | 26 | 998.5 |
| 20260504185345 | 68 | 144 | 2.0 | 6.0 | 0.00 | 0.00 | 0.00 | 26 | 998.5 |
| 20260504184841 | 69 | 229 | 4.0 | 7.0 | 0.00 | 0.00 | 0.00 | 27 | 998.5 |
| 20260504184337 | 69 | 54 | 1.0 | 5.0 | 0.00 | 0.00 | 0.00 | 29 | 998.6 |
| 20260504183832 | 68 | 231 | 2.0 | 6.0 | 0.00 | 0.00 | 0.00 | 32 | 998.6 |
| 20260504183330 | 69 | 239 | 4.0 | 11.0 | 0.00 | 0.00 | 0.00 | 30 | 998.6 |
| 20260504182828 | 68 | 265 | 4.0 | 6.0 | 0.00 | 0.00 | 0.00 | 32 | 998.6 |
| 20260504182325 | 67 | 244 | 4.0 | 9.0 | 0.00 | 0.00 | 0.00 | 32 | 998.9 |
| 20260504181822 | 67 | 259 | 6.0 | 7.0 | 0.00 | 0.00 | 0.00 | 32 | 999.0 |
| 20260504181319 | 68 | 354 | 2.0 | 11.0 | 0.00 | 0.00 | 0.00 | 32 | 998.5 |
| 20260504180818 | 70 | 232 | 5.0 | 9.0 | 0.00 | 0.00 | 0.00 | 30 | 998.6 |
| 20260504180316 | 71 | 231 | 3.0 | 9.0 | 0.00 | 0.00 | 0.00 | 32 | 998.6 |
| 20260504175814 | 70 | 274 | 2.0 | 3.0 | 0.00 | 0.00 | 0.00 | 30 | 998.7 |
| 20260504175311 | 71 | 269 | 2.0 | 2.0 | 0.00 | 0.00 | 0.00 | 30 | 999.0 |
| 20260504174809 | 72 | 280 | 3.0 | 5.0 | 0.00 | 0.00 | 0.00 | 29 | 999.0 |
| 20260504174306 | 69 | 20 | 3.0 | 6.0 | 0.00 | 0.00 | 0.00 | 31 | 999.1 |
| 20260504173802 | 69 | 0 | 0.0 | 3.0 | 0.00 | 0.00 | 0.00 | 32 | 999.0 |
| 20260504173259 | 69 | 228 | 4.0 | 6.0 | 0.00 | 0.00 | 0.00 | 31 | 999.2 |
| 20260504172756 | 70 | 264 | 6.0 | 6.0 | 0.00 | 0.00 | 0.00 | 29 | 999.3 |
| 20260504172253 | 70 | 39 | 0.0 | 5.0 | 0.00 | 0.00 | 0.00 | 31 | 999.1 |
| 20260504171749 | 66 | 157 | 0.0 | 2.0 | 0.00 | 0.00 | 0.00 | 33 | 999.2 |
| 20260504171246 | 65 | 57 | 4.0 | 6.0 | 0.00 | 0.00 | 0.00 | 34 | 999.6 |
| 20260504170743 | 68 | 92 | 4.0 | 4.0 | 0.00 | 0.00 | 0.00 | 38 | 999.5 |
| 20260504170240 | 65 | 1 | 0.0 | 6.0 | 0.00 | 0.00 | 0.00 | 34 | 999.2 |
| 20260504160159 | 62 | 68 | 0.0 | 2.0 | 0.00 | 0.00 | 0.00 | 39 | 1000.0 |
| 20260504151126 | 55 | 23 | 0.0 | 2.0 | 0.00 | 0.00 | 0.00 | 45 | 1000.5 |
| 20260504150624 | 54 | 244 | 0.0 | 2.0 | 0.00 | 0.00 | 0.00 | 49 | 1000.5 |
| 20260504150121 | 55 | 220 | 2.0 | 2.0 | 0.00 | 0.00 | 0.00 | 48 | 1000.6 |
| 20260504141049 | 50 | 62 | 3.0 | 3.0 | 0.00 | 0.00 | 0.00 | 47 | 1000.9 |
| 20260504140546 | 49 | 119 | 0.0 | 2.0 | 0.00 | 0.00 | 0.00 | 47 | 1000.8 |
| 20260504130510 | 44 | 67 | 1.0 | 3.0 | 0.00 | 0.00 | 0.00 | 49 | 1000.5 |
| 20260504110352 | 0 | 0.0 | 0.0 | 0.00 | 0.00 | 0.00 | 1000.6 | ||
| 20260504100309 | 45 | 152 | 2.0 | 4.0 | 0.00 | 0.00 | 0.00 | 46 | 1000.8 |
| 20260504081702 | 46 | 93 | 3.0 | 3.0 | 0.00 | 0.00 | 0.00 | 43 | 1000.4 |
| 20260504081158 | 46 | 93 | 3.0 | 3.0 | 0.00 | 0.00 | 0.00 | 43 | 1000.5 |
| 20260504080655 | 46 | 93 | 3.0 | 3.0 | 0.00 | 0.00 | 0.00 | 43 | 1000.5 |
| 20260504080152 | 46 | 93 | 3.0 | 3.0 | 0.00 | 0.00 | 0.00 | 43 | 1000.4 |
| 20260504070119 | 0 | 0.0 | 0.0 | 0.00 | 0.00 | 0.00 | 1000.5 | ||
| 20260504050509 | 52 | 58 | 1.0 | 2.0 | 0.00 | 0.00 | 0.00 | 34 | 1000.9 |
| 20260504050006 | 53 | 68 | 2.0 | 2.0 | 0.00 | 0.00 | 0.00 | 36 | 1000.8 |
| 20260504045502 | 53 | 72 | 2.0 | 2.0 | 0.00 | 0.00 | 0.00 | 36 | 1001.0 |
| 20260504044957 | 53 | 72 | 2.0 | 2.0 | 0.00 | 0.00 | 0.00 | 36 | 1000.8 |
| 20260504044455 | 53 | 72 | 2.0 | 2.0 | 0.00 | 0.00 | 0.00 | 36 | 1000.6 |
| 20260504043952 | 53 | 72 | 2.0 | 2.0 | 0.00 | 0.00 | 0.00 | 36 | 1000.8 |
| 20260504043449 | 53 | 72 | 2.0 | 2.0 | 0.00 | 0.00 | 0.00 | 36 | 1000.6 |
| 20260504042946 | 57 | 62 | 2.0 | 2.0 | 0.00 | 0.00 | 0.00 | 30 | 1000.8 |
| 20260504042442 | 57 | 62 | 2.0 | 2.0 | 0.00 | 0.00 | 0.00 | 30 | 1000.8 |
| 20260504041939 | 57 | 62 | 2.0 | 2.0 | 0.00 | 0.00 | 0.00 | 30 | 1000.6 |
| 20260504041435 | 57 | 62 | 2.0 | 2.0 | 0.00 | 0.00 | 0.00 | 30 | 1000.8 |
| 20260504040931 | 57 | 62 | 2.0 | 2.0 | 0.00 | 0.00 | 0.00 | 30 | 1000.8 |
| 20260504040429 | 57 | 62 | 2.0 | 2.0 | 0.00 | 0.00 | 0.00 | 30 | 1000.6 |
| 20260504035925 | 57 | 62 | 2.0 | 2.0 | 0.00 | 0.00 | 0.00 | 30 | 1000.6 |
| 20260504035423 | 57 | 62 | 2.0 | 2.0 | 0.00 | 0.00 | 0.00 | 30 | 1000.5 |
| 20260504034919 | 57 | 62 | 2.0 | 2.0 | 0.00 | 0.00 | 0.00 | 30 | 1000.4 |
| 20260504034417 | 57 | 112 | 2.0 | 2.0 | 0.00 | 0.00 | 0.00 | 30 | 1000.6 |
| 20260504033914 | 57 | 142 | 0.0 | 0.0 | 0.00 | 0.00 | 0.00 | 29 | 1000.5 |
| 20260504033412 | 58 | 113 | 1.0 | 1.0 | 0.00 | 0.00 | 0.00 | 29 | 1000.6 |
| 20260504032909 | 58 | 126 | 0.0 | 1.0 | 0.00 | 0.00 | 0.00 | 28 | 1000.3 |
| 20260504032405 | 59 | 56 | 0.0 | 1.0 | 0.00 | 0.00 | 0.00 | 28 | 1000.4 |
| 20260504031901 | 59 | 60 | 2.0 | 2.0 | 0.00 | 0.00 | 0.00 | 27 | 1000.3 |
| 20260504031359 | 60 | 88 | 1.0 | 1.0 | 0.00 | 0.00 | 0.00 | 27 | 1000.5 |
| 20260504030855 | 60 | 122 | 0.0 | 1.0 | 0.00 | 0.00 | 0.00 | 26 | 1000.3 |
| 20260504030353 | 61 | 72 | 2.0 | 3.0 | 0.00 | 0.00 | 0.00 | 26 | 1000.3 |
| 20260504025848 | 60 | 54 | 2.0 | 2.0 | 0.00 | 0.00 | 0.00 | 26 | 1000.5 |
| 20260504025346 | 60 | 78 | 2.0 | 2.0 | 0.00 | 0.00 | 0.00 | 27 | 1000.3 |
| 20260504024842 | 60 | 83 | 1.0 | 2.0 | 0.00 | 0.00 | 0.00 | 26 | 1000.3 |
| 20260504024339 | 61 | 135 | 0.0 | 0.0 | 0.00 | 0.00 | 0.00 | 25 | 1000.3 |
| 20260504023836 | 62 | 68 | 1.0 | 1.0 | 0.00 | 0.00 | 0.00 | 25 | 1000.3 |
| 20260504023333 | 62 | 217 | 0.0 | 0.0 | 0.00 | 0.00 | 0.00 | 24 | 1000.4 |